TimeEDT,TemperatureF,Dew PointF,Humidity,Sea Level PressureIn,VisibilityMPH,Wind Direction,Wind SpeedMPH,Gust SpeedMPH,PrecipitationIn,Events,Conditions,WindDirDegrees,DateUTC
12:15 AM,73.4,62.6,69,29.67,10.0,SSE,3.5,-,N/A,,Mostly Cloudy,160,2013-07-23 04:15:00
12:35 AM,73.4,62.6,69,29.66,10.0,South,5.8,-,N/A,,Partly Cloudy,190,2013-07-23 04:35:00
12:55 AM,73.4,62.6,69,29.67,10.0,South,6.9,-,N/A,,Clear,170,2013-07-23 04:55:00
1:15 AM,73.4,62.6,69,29.68,10.0,SSW,8.1,-,N/A,,Clear,200,2013-07-23 05:15:00
1:35 AM,73.4,62.6,69,29.69,10.0,SSW,5.8,-,N/A,,Clear,200,2013-07-23 05:35:00
1:55 AM,73.4,64.4,73,29.68,10.0,SSW,5.8,-,N/A,,Partly Cloudy,200,2013-07-23 05:55:00
2:15 AM,73.4,64.4,73,29.66,10.0,SSW,5.8,-,N/A,,Mostly Cloudy,200,2013-07-23 06:15:00
2:35 AM,73.4,64.4,73,29.66,10.0,SW,6.9,-,N/A,,Overcast,230,2013-07-23 06:35:00
2:55 AM,75.2,66.2,73,29.68,10.0,West,18.4,24.2,N/A,,Overcast,270,2013-07-23 06:55:00
3:15 AM,73.4,66.2,78,29.68,10.0,West,12.7,17.3,N/A,,Overcast,270,2013-07-23 07:15:00
3:35 AM,71.6,66.2,83,29.67,10.0,WNW,12.7,18.4,N/A,,Mostly Cloudy,300,2013-07-23 07:35:00
3:55 AM,71.6,64.4,78,29.68,10.0,NW,11.5,18.4,N/A,,Partly Cloudy,320,2013-07-23 07:55:00
4:15 AM,69.8,62.6,78,29.68,10.0,NNW,8.1,-,N/A,,Partly Cloudy,340,2013-07-23 08:15:00
4:35 AM,69.8,60.8,73,29.69,10.0,NNW,12.7,16.1,N/A,,Scattered Clouds,330,2013-07-23 08:35:00
4:55 AM,69.8,60.8,73,29.70,10.0,North,8.1,-,N/A,,Mostly Cloudy,350,2013-07-23 08:55:00
5:15 AM,69.8,60.8,73,29.71,10.0,NNW,10.4,-,N/A,,Overcast,330,2013-07-23 09:15:00
5:35 AM,69.8,60.8,73,29.72,10.0,NNW,10.4,16.1,N/A,,Overcast,330,2013-07-23 09:35:00
5:55 AM,69.8,60.8,73,29.72,10.0,North,11.5,18.4,N/A,,Overcast,350,2013-07-23 09:55:00
6:15 AM,69.8,59.0,68,29.72,10.0,North,9.2,-,N/A,,Overcast,350,2013-07-23 10:15:00
6:35 AM,69.8,59.0,68,29.72,10.0,North,8.1,-,N/A,,Mostly Cloudy,360,2013-07-23 10:35:00
6:55 AM,68.0,57.2,68,29.72,10.0,NNW,9.2,-,N/A,,Scattered Clouds,340,2013-07-23 10:55:00
7:15 AM,68.0,57.2,68,29.73,10.0,North,8.1,-,N/A,,Partly Cloudy,350,2013-07-23 11:15:00
7:35 AM,68.0,55.4,64,29.74,10.0,North,9.2,-,N/A,,Mostly Cloudy,360,2013-07-23 11:35:00
7:55 AM,68.0,57.2,68,29.74,10.0,NNW,9.2,-,N/A,,Mostly Cloudy,330,2013-07-23 11:55:00
8:15 AM,69.8,55.4,60,29.74,10.0,NNW,10.4,16.1,N/A,,Clear,340,2013-07-23 12:15:00
8:35 AM,68.0,57.2,68,29.74,10.0,NNW,12.7,21.9,N/A,,Scattered Clouds,330,2013-07-23 12:35:00
8:55 AM,69.8,55.4,60,29.75,10.0,NNW,15.0,21.9,N/A,,Partly Cloudy,330,2013-07-23 12:55:00
9:15 AM,68.0,55.4,64,29.76,10.0,NNW,10.4,21.9,N/A,,Partly Cloudy,340,2013-07-23 13:15:00
9:35 AM,69.8,55.4,60,29.76,10.0,NNW,12.7,18.4,N/A,,Scattered Clouds,340,2013-07-23 13:35:00
9:55 AM,68.0,55.4,64,29.76,10.0,North,15.0,19.6,N/A,,Mostly Cloudy,360,2013-07-23 13:55:00
10:15 AM,68.0,53.6,60,29.77,10.0,NNW,12.7,24.2,N/A,,Scattered Clouds,340,2013-07-23 14:15:00
10:35 AM,68.0,51.8,56,29.79,10.0,NNW,13.8,24.2,N/A,,Partly Cloudy,340,2013-07-23 14:35:00
10:55 AM,68.0,53.6,60,29.80,10.0,NNW,17.3,20.7,N/A,,Partly Cloudy,330,2013-07-23 14:55:00
11:15 AM,68.0,53.6,60,29.81,10.0,NNW,15.0,24.2,N/A,,Mostly Cloudy,340,2013-07-23 15:15:00
11:35 AM,66.2,53.6,64,29.83,10.0,NNW,17.3,23.0,N/A,,Overcast,340,2013-07-23 15:35:00
11:55 AM,66.2,53.6,64,29.84,10.0,NNW,17.3,26.5,N/A,,Overcast,340,2013-07-23 15:55:00
12:15 PM,66.2,51.8,60,29.84,10.0,NNW,19.6,26.5,N/A,,Overcast,330,2013-07-23 16:15:00
12:35 PM,66.2,51.8,60,29.85,10.0,NNW,17.3,25.3,N/A,,Overcast,340,2013-07-23 16:35:00
12:55 PM,66.2,50.0,56,29.85,10.0,NNW,15.0,23.0,N/A,,Overcast,340,2013-07-23 16:55:00
1:15 PM,64.4,50.0,59,29.86,10.0,North,19.6,25.3,N/A,,Overcast,350,2013-07-23 17:15:00
1:35 PM,66.2,50.0,56,29.86,10.0,NNW,16.1,25.3,N/A,,Overcast,340,2013-07-23 17:35:00
1:55 PM,66.2,48.2,52,29.87,10.0,NW,18.4,23.0,N/A,,Overcast,320,2013-07-23 17:55:00
2:15 PM,64.4,50.0,59,29.88,10.0,NNW,11.5,23.0,N/A,,Overcast,330,2013-07-23 18:15:00
2:35 PM,62.6,51.8,68,29.89,10.0,NNW,18.4,27.6,N/A,,Overcast,340,2013-07-23 18:35:00
2:55 PM,60.8,48.2,63,29.89,10.0,NNW,19.6,26.5,N/A,,Overcast,330,2013-07-23 18:55:00
3:15 PM,62.6,48.2,59,29.89,10.0,NNW,18.4,28.8,N/A,,Overcast,340,2013-07-23 19:15:00
3:35 PM,62.6,48.2,59,29.89,10.0,NNW,24.2,29.9,N/A,,Mostly Cloudy,340,2013-07-23 19:35:00
3:55 PM,62.6,46.4,55,29.90,10.0,North,23.0,32.2,N/A,,Overcast,350,2013-07-23 19:55:00
4:15 PM,62.6,46.4,55,29.90,10.0,North,20.7,28.8,N/A,,Overcast,350,2013-07-23 20:15:00
4:35 PM,62.6,46.4,55,29.91,10.0,NNW,20.7,28.8,N/A,,Overcast,340,2013-07-23 20:35:00
4:55 PM,62.6,46.4,55,29.92,10.0,North,16.1,27.6,N/A,,Overcast,350,2013-07-23 20:55:00
5:15 PM,62.6,46.4,55,29.92,10.0,NNW,17.3,25.3,N/A,,Mostly Cloudy,330,2013-07-23 21:15:00
5:35 PM,62.6,46.4,55,29.93,10.0,North,15.0,27.6,N/A,,Overcast,350,2013-07-23 21:35:00
5:55 PM,62.6,46.4,55,29.93,10.0,NNW,16.1,24.2,N/A,,Overcast,340,2013-07-23 21:55:00
6:15 PM,62.6,46.4,55,29.93,10.0,NNW,18.4,25.3,N/A,,Overcast,330,2013-07-23 22:15:00
6:35 PM,62.6,46.4,55,29.93,10.0,North,12.7,24.2,N/A,,Mostly Cloudy,350,2013-07-23 22:35:00
6:55 PM,62.6,46.4,55,29.93,10.0,NNW,15.0,24.2,N/A,,Scattered Clouds,330,2013-07-23 22:55:00
7:15 PM,62.6,46.4,55,29.93,10.0,NNW,16.1,24.2,N/A,,Mostly Cloudy,340,2013-07-23 23:15:00
7:35 PM,62.6,46.4,55,29.93,10.0,NNW,15.0,25.3,N/A,,Partly Cloudy,340,2013-07-23 23:35:00
7:55 PM,62.6,44.6,52,29.94,10.0,North,15.0,20.7,N/A,,Scattered Clouds,360,2013-07-23 23:55:00
8:15 PM,60.8,44.6,55,29.93,10.0,North,16.1,21.9,N/A,,Scattered Clouds,360,2013-07-24 00:15:00
8:35 PM,60.8,44.6,55,29.94,10.0,North,11.5,21.9,N/A,,Partly Cloudy,350,2013-07-24 00:35:00
8:55 PM,60.8,44.6,55,29.94,10.0,North,12.7,17.3,N/A,,Clear,350,2013-07-24 00:55:00
9:15 PM,60.8,44.6,55,29.94,10.0,North,9.2,17.3,N/A,,Clear,10,2013-07-24 01:15:00
9:35 PM,59.0,42.8,55,29.95,10.0,NNE,6.9,-,N/A,,Clear,20,2013-07-24 01:35:00
9:55 PM,59.0,42.8,55,29.95,10.0,North,5.8,-,N/A,,Clear,10,2013-07-24 01:55:00
10:15 PM,57.2,42.8,59,29.96,10.0,North,5.8,-,N/A,,Clear,10,2013-07-24 02:15:00
10:35 PM,57.2,42.8,59,29.96,10.0,NNE,5.8,-,N/A,,Clear,20,2013-07-24 02:35:00
10:55 PM,57.2,42.8,59,29.96,10.0,NNE,5.8,-,N/A,,Clear,20,2013-07-24 02:55:00
11:15 PM,57.2,42.8,59,29.97,10.0,NNE,5.8,-,N/A,,Clear,30,2013-07-24 03:15:00
11:35 PM,55.4,42.8,63,29.97,10.0,NE,3.5,-,N/A,,Clear,50,2013-07-24 03:35:00
11:55 PM,53.6,42.8,67,29.97,10.0,NE,3.5,-,N/A,,Clear,40,2013-07-24 03:55:00